Fort Lewis, WA

10:27 AM PDT on September 19, 2017 (GMT -0700)
Gray Army Air Field

Weather History for KGRF - February, 2014

Change the Weather History Date:

Sunday, February 2, 2014

  Actual Average Record
Temperature  
Mean Temperature 36 °F -  
Max Temperature 44 °F 47 °F 62 °F (2005)
Min Temperature 28 °F 33 °F 22 °F (2007)
Degree Days  
Heating Degree Days 29    
Moisture  
Dew Point 33 °F    
Average Humidity 92    
Maximum Humidity 100    
Minimum Humidity 58    
Precipitation  
Precipitation 0.00 in - - ()
Sea Level Pressure  
Sea Level Pressure 30.03 in    
Wind  
Wind Speed 3 mph (NE)    
Max Wind Speed 10 mph    
Max Gust Speed -    
Visibility 6 miles    
Events Fog , Rain    
Averages and records for this station are not official NWS values.
T = Trace of Precipitation, MM = Missing Value Source: NWS Daily Summary

Daily Weather History Graph

Daily Weather History Graph

Search for Another Location

Airport or City:

Trip Planner

Search our weather history database for the weather conditions in past years. The results will help you decide how hot, cold, wet, or windy it might be!

Date:

Astronomy

Feb. 02, 2014 Rise Set
Actual Time 7:33 AM PST 5:14 PM PST
Civil Twilight 7:01 AM PST 5:47 PM PST
Nautical Twilight 6:25 AM PST 6:23 PM PST
Astronomical Twilight 5:49 AM PST 6:59 PM PST
Moon 8:47 AM PST (2/2) 9:23 PM PST (2/2)
Length of Visible Light 10h 45m
Length of Day
9h 40m
Waxing Crescent, 12% of the Moon is Illuminated
Feb 2
Waxing Crescent
Feb 6
First Quarter
Feb 14
Full
Feb 22
Last Quarter
Mar 1
New

Hourly Weather History & Observations

Time (PST) Temp. Windchill Dew Point Humidity Pressure Visibility Wind Dir Wind Speed Gust Speed Precip Events Conditions
12:03 AM 32.0 °F - 32.0 °F 100% 30.07 in 0.8 mi SE 2.3 mph - N/A   Partly Cloudy
12:08 AM 32.0 °F - 32.0 °F 100% 30.06 in 1.2 mi ESE 1.2 mph - N/A   Partly Cloudy
12:13 AM 33.8 °F - 32.0 °F 93% 30.06 in 2.0 mi East 2.3 mph - N/A   Partly Cloudy
12:18 AM 33.8 °F - 32.0 °F 93% 30.06 in 2.0 mi East 2.3 mph - N/A   Partly Cloudy
12:23 AM 32.0 °F - 32.0 °F 100% 30.06 in 1.5 mi SE 2.3 mph - N/A   Light Drizzle
12:28 AM 32.0 °F - 32.0 °F 100% 30.06 in 1.0 mi SE 2.3 mph - N/A Rain Light Rain
12:38 AM 32.0 °F - 32.0 °F 100% 30.06 in 0.8 mi SE 2.3 mph - N/A   Clear
12:43 AM 32.0 °F - 32.0 °F 100% 30.06 in 0.5 mi SE 2.3 mph - N/A Fog Light Freezing Fog
12:53 AM 32.0 °F 28.7 °F 30.2 °F 93% 30.06 in 0.8 mi SE 3.5 mph - N/A   Clear
12:58 AM 32.0 °F - 30.2 °F 93% 30.08 in 0.8 mi SE 2.3 mph - 0.00 in   Clear
1:03 AM 32.0 °F - 30.2 °F 93% 30.06 in 0.5 mi SE 2.3 mph - N/A Fog Light Freezing Fog
1:08 AM 30.2 °F 25.4 °F 30.2 °F 100% 30.06 in 0.5 mi SE 4.6 mph - N/A Fog , Rain Light Freezing Rain
1:11 AM 30.2 °F 25.4 °F 30.2 °F 100% 30.06 in 0.5 mi SSE 4.6 mph - N/A Fog , Rain Light Freezing Rain
1:12 AM 30.2 °F 25.4 °F 30.2 °F 100% 30.06 in 0.5 mi SE 4.6 mph - N/A Fog , Rain Light Freezing Rain
1:22 AM 28.4 °F 22.2 °F 28.4 °F 100% 30.06 in 0.5 mi SE 5.8 mph - N/A Fog , Rain Light Freezing Rain
1:27 AM 30.2 °F 26.7 °F 28.4 °F 93% 30.05 in 0.5 mi SE 3.5 mph - N/A Fog Light Freezing Fog
1:32 AM 30.2 °F 26.7 °F 30.2 °F 100% 30.05 in 0.5 mi SE 3.5 mph - N/A Fog Light Freezing Fog
1:54 AM 30.2 °F 24.3 °F 28.4 °F 93% 30.05 in 0.5 mi SSE 5.8 mph - N/A Fog , Rain Light Freezing Rain
1:58 AM 30.2 °F 24.3 °F 30.2 °F 100% 30.07 in 0.8 mi SSE 5.8 mph - 0.00 in   Overcast
2:03 AM 30.2 °F 26.7 °F 30.2 °F 100% 30.06 in 1.0 mi SE 3.5 mph - N/A   Overcast
2:24 AM 30.2 °F - 30.2 °F 100% 30.05 in 0.8 mi Calm Calm - N/A   Mist
2:29 AM 30.2 °F - 30.2 °F 100% 30.06 in 1.2 mi Calm Calm - N/A   Overcast
2:34 AM 30.2 °F - 30.2 °F 100% 30.06 in 1.5 mi Calm Calm - N/A   Overcast
2:39 AM 32.0 °F - 32.0 °F 100% 30.05 in 1.8 mi South 2.3 mph - N/A   Overcast
2:44 AM 32.0 °F - 32.0 °F 100% 30.05 in 4.0 mi SSW 2.3 mph - N/A   Overcast
2:54 AM 32.0 °F - 32.0 °F 100% 30.05 in 10.0 mi Calm Calm - N/A   Overcast
2:58 AM 31.8 °F - 31.5 °F 99% 30.07 in 10.0 mi SE 1.2 mph - 0.00 in   Overcast
3:33 AM 32.0 °F - 32.0 °F 100% 30.04 in 2.0 mi Calm Calm - N/A   Overcast
3:38 AM 32.0 °F - 32.0 °F 100% 30.04 in 1.2 mi Calm Calm - N/A   Overcast
3:43 AM 32.0 °F - 32.0 °F 100% 30.04 in 1.5 mi WSW 1.2 mph - N/A   Overcast
3:48 AM 32.0 °F - 32.0 °F 100% 30.04 in 2.0 mi NW 1.2 mph - N/A   Overcast
3:53 AM 33.8 °F - 32.0 °F 93% 30.03 in 3.0 mi WNW 1.2 mph - N/A   Overcast
3:58 AM 34.0 °F 31.0 °F 33.6 °F 99% 30.05 in 7.0 mi NNW 3.5 mph - N/A   Overcast
4:58 AM 36.0 °F 33.3 °F 36.0 °F 100% 30.04 in 10.0 mi North 3.5 mph - N/A   Overcast
5:18 AM 35.6 °F 31.7 °F 35.6 °F 100% 30.02 in 6.0 mi North 4.6 mph - N/A   Overcast
5:24 AM 35.6 °F 31.7 °F 35.6 °F 100% 30.02 in 5.0 mi North 4.6 mph - N/A   Light Drizzle
5:29 AM 35.6 °F 31.7 °F 35.6 °F 100% 30.02 in 5.0 mi North 4.6 mph - N/A   Light Drizzle
5:38 AM 35.6 °F 31.7 °F 35.6 °F 100% 30.02 in 6.0 mi North 4.6 mph - N/A   Overcast
5:58 AM 35.8 °F 30.9 °F 35.6 °F 99% 30.04 in 10.0 mi North 5.8 mph - 0.00 in   Overcast
6:03 AM 35.6 °F 31.7 °F 35.6 °F 100% 30.02 in 10.0 mi North 4.6 mph - N/A   Overcast
6:04 AM 35.6 °F 30.7 °F 35.6 °F 100% 30.02 in 10.0 mi North 5.8 mph - N/A   Overcast
6:27 AM 35.6 °F 31.7 °F 35.6 °F 100% 30.02 in 10.0 mi NE 4.6 mph - N/A   Overcast
6:33 AM 35.6 °F 31.7 °F 35.6 °F 100% 30.02 in 10.0 mi NE 4.6 mph - N/A   Overcast
6:58 AM 35.2 °F 31.2 °F 34.9 °F 99% 30.04 in 10.0 mi NNE 4.6 mph - 0.00 in   Overcast
7:25 AM 35.6 °F - 35.6 °F 100% 30.03 in 10.0 mi NE 2.3 mph - N/A   Overcast
7:35 AM 35.6 °F 31.7 °F 33.8 °F 93% 30.03 in 3.0 mi NE 4.6 mph - N/A   Overcast
7:57 AM 33.8 °F 29.6 °F 33.8 °F 100% 30.03 in 7.0 mi NE 4.6 mph - N/A   Overcast
7:58 AM 34.5 °F 30.4 °F 34.3 °F 99% 30.05 in 7.0 mi NE 4.6 mph - 0.00 in   Overcast
8:08 AM 33.8 °F 28.6 °F 33.8 °F 100% 30.03 in 6.0 mi NNE 5.8 mph - N/A   Overcast
8:33 AM 33.8 °F 29.6 °F 33.8 °F 100% 30.02 in 2.0 mi North 4.6 mph - N/A   Overcast
8:38 AM 33.8 °F 27.7 °F 33.8 °F 100% 30.02 in 2.5 mi NNW 6.9 mph - N/A   Overcast
8:43 AM 33.8 °F 28.6 °F 33.8 °F 100% 30.02 in 4.0 mi NNW 5.8 mph - N/A   Overcast
8:58 AM 34.2 °F 29.0 °F 34.0 °F 99% 30.04 in 4.0 mi NNW 5.8 mph - N/A   Overcast
9:00 AM 33.8 °F 29.6 °F 32.0 °F 93% 30.02 in 4.0 mi North 4.6 mph - N/A   Overcast
9:14 AM 33.8 °F - 32.0 °F 93% 30.03 in 6.0 mi NNE 2.3 mph - N/A   Overcast
9:29 AM 33.8 °F - 33.8 °F 100% 30.03 in 10.0 mi Variable 1.2 mph - N/A   Overcast
9:39 AM 35.6 °F - 33.8 °F 93% 30.02 in 10.0 mi NE 1.2 mph - N/A   Overcast
9:49 AM 35.6 °F - 35.6 °F 100% 30.02 in 10.0 mi ENE 2.3 mph - N/A   Overcast
9:58 AM 36.0 °F - 35.8 °F 99% 30.04 in 10.0 mi Calm Calm - 0.00 in   Overcast
10:13 AM 37.4 °F - 35.6 °F 93% 30.02 in 10.0 mi Calm Calm - N/A   Overcast
10:33 AM 37.4 °F - 35.6 °F 93% 30.02 in 10.0 mi NNE 2.3 mph - N/A   Scattered Clouds
10:58 AM 38.7 °F - 36.3 °F 91% 30.03 in 10.0 mi NNE 1.2 mph - N/A   Clear
11:55 AM 41.0 °F 39.0 °F 33.8 °F 76% 30.01 in 10.0 mi Variable 3.5 mph - N/A   Clear
12:58 PM 44.8 °F 43.3 °F 31.8 °F 60% 30.00 in 10.0 mi NNE 3.5 mph - 0.00 in   Light Drizzle
1:18 PM 44.6 °F 42.2 °F 32.0 °F 61% 29.96 in 10.0 mi North 4.6 mph - N/A   Scattered Clouds
1:33 PM 44.6 °F 43.1 °F 32.0 °F 61% 29.96 in 10.0 mi Variable 3.5 mph - N/A   Mostly Cloudy
1:58 PM 44.2 °F 41.8 °F 30.2 °F 58% 29.97 in 10.0 mi ESE 4.6 mph - 0.00 in   Scattered Clouds
2:58 PM 43.3 °F 40.7 °F 34.5 °F 71% 29.97 in 10.0 mi SSE 4.6 mph - N/A   Overcast
3:58 PM 43.5 °F - 32.5 °F 65% 29.97 in 10.0 mi Calm Calm - N/A   Partly Cloudy
4:45 PM 42.8 °F - 32.0 °F 66% 29.94 in 10.0 mi SW 2.3 mph - N/A   Mostly Cloudy
4:58 PM 41.0 °F - 32.0 °F 70% 29.97 in 10.0 mi WNW 2.3 mph - N/A   Mostly Cloudy
5:58 PM 40.6 °F 37.5 °F 32.7 °F 73% 29.97 in 10.0 mi NW 4.6 mph - N/A   Overcast
6:58 PM 40.1 °F 34.1 °F 33.8 °F 78% 29.98 in 10.0 mi NNW 9.2 mph - N/A   Overcast
7:23 PM 39.2 °F 32.5 °F 32.0 °F 75% 29.96 in 10.0 mi NNW 10.4 mph - N/A   Mostly Cloudy
7:58 PM 38.7 °F 32.9 °F 30.7 °F 73% 29.99 in 10.0 mi NW 8.1 mph - N/A   Overcast
8:58 PM 38.3 °F 33.9 °F 29.5 °F 71% 29.99 in 10.0 mi North 5.8 mph - N/A   Scattered Clouds
9:58 PM 37.6 °F 33.1 °F 29.5 °F 73% 30.00 in 10.0 mi NNW 5.8 mph - N/A   Overcast
10:58 PM 37.6 °F - 29.7 °F 73% 30.01 in 10.0 mi East 1.2 mph - N/A   Overcast
11:58 PM 37.2 °F - 29.7 °F 74% 30.03 in 10.0 mi East 1.2 mph - N/A   Overcast